Location: ?
(35.3436°N, 139.3168°E)
Time: 22:51:21
(UTC+00:00)

Hubble Space Telescope - Visible Passes

Search period start: 22 January 2021 00:00
Search period end: 01 February 2021 00:00
Orbit: 536 x 539 km, 28.5° (Epoch: 22 January)

Date Brightness Start Highest point End Pass type
(mag) Time Alt. Az. Time Alt. Az. Time Alt. Az.
22 Jan 2.0 09:47:43 10° WSW 09:51:22 30° S 09:51:52 29° S visible
23 Jan 2.2 09:36:53 10° WSW 09:40:28 29° S 09:41:48 24° SSE visible
24 Jan 2.4 09:26:04 10° WSW 09:29:35 27° S 09:31:46 17° SE visible
25 Jan 2.6 09:15:16 10° WSW 09:18:40 25° SSW 09:21:50 11° SE visible
26 Jan 2.8 09:04:32 10° WSW 09:07:46 22° SSW 09:11:00 10° SE visible
27 Jan 3.1 08:53:50 10° WSW 08:56:51 19° SSW 08:59:51 10° SSE visible
28 Jan 3.4 08:43:14 10° WSW 08:45:55 17° SSW 08:48:37 10° SSE visible
29 Jan 3.5 08:32:45 10° SW 08:34:58 14° SSW 08:37:12 10° SSE visible
